Victoria, British Columbia

6:46 PM PDT on March 25, 2017 (GMT -0700)
Victoria International

Weather History for CYYJ - April, 2013

Change the Weather History Date:

Saturday, April 13, 2013

  Actual Average Record
Temperature  
Mean Temperature 42 °F -  
Max Temperature 50 °F 58 °F 62 °F (2014)
Min Temperature 35 °F 41 °F 35 °F (1999)
Degree Days  
Heating Degree Days 22    
Moisture  
Dew Point 34 °F    
Average Humidity 72    
Maximum Humidity 93    
Minimum Humidity 57    
Precipitation  
Precipitation 0.08 in 0.05 in - ()
Sea Level Pressure  
Sea Level Pressure 29.87 in    
Wind  
Wind Speed 7 mph ()    
Max Wind Speed 12 mph    
Max Gust Speed -    
Visibility 14.7 miles    
Events Rain    
Averages and records for this station are not official NWS values.
T = Trace of Precipitation, MM = Missing Value Source: Averaged Metar Reports

Daily Weather History Graph

Daily Weather History Graph

Search for Another Location

Airport or City:

Trip Planner

Search our weather history database for the weather conditions in past years. The results will help you decide how hot, cold, wet, or windy it might be!

Date:

Astronomy

Apr. 13, 2013 Rise Set
Actual Time 6:26 AM PDT 8:02 PM PDT
Civil Twilight 5:53 AM PDT 8:35 PM PDT
Nautical Twilight 5:13 AM PDT 9:16 PM PDT
Astronomical Twilight 4:29 AM PDT 10:00 PM PDT
Moon 8:08 AM PDT (4/13) 11:46 PM PDT (4/13)
Length of Visible Light 14h 42m
Length of Day
13h 36m
Waxing Crescent, 11% of the Moon is Illuminated
Apr 13
Waxing Crescent
Apr 18
First Quarter
Apr 25
Full
May 2
Last Quarter
May 9
New

Hourly Weather History & Observations

Time (PDT) Temp. Windchill Dew Point Humidity Pressure Visibility Wind Dir Wind Speed Gust Speed Precip Events Conditions
12:00 AM 41.0 °F 36.4 °F 28.4 °F 61% 29.73 in 30.0 mi WSW 6.9 mph - N/A   Partly Cloudy
1:00 AM 39.2 °F 32.0 °F 28.4 °F 65% 29.76 in 30.0 mi WSW 11.5 mph - N/A   Partly Cloudy
2:00 AM 39.2 °F 32.0 °F 28.4 °F 65% 29.78 in 30.0 mi WSW 11.5 mph - N/A   Partly Cloudy
3:00 AM 39.2 °F 32.5 °F 26.6 °F 61% 29.79 in 30.0 mi WSW 10.4 mph - N/A   Clear
4:00 AM 39.2 °F 35.0 °F 26.6 °F 61% 29.81 in 30.0 mi SSW 5.8 mph - N/A   Partly Cloudy
5:00 AM 38 °F - 28 °F 57% 29.82 in 28 mi SW 9.2 mph - -   Mostly Cloudy
5:00 AM 37.4 °F 30.3 °F 28.4 °F 70% 29.82 in 30.0 mi SW 10.4 mph - N/A   Mostly Cloudy
6:00 AM 37.4 °F 32.1 °F 28.4 °F 70% 29.82 in 30.0 mi ESE 6.9 mph - N/A   Mostly Cloudy
7:00 AM 39.2 °F 35.0 °F 30.2 °F 70% 29.82 in 30.0 mi SSE 5.8 mph - N/A   Mostly Cloudy
8:00 AM 41.0 °F 37.1 °F 32.0 °F 70% 29.83 in 20.0 mi SSE 5.8 mph - N/A   Overcast
8:10 AM 41.0 °F 36.4 °F - N/A% - 10.0 mi SSE 6.9 mph - N/A Rain Light Rain
8:18 AM 41.0 °F 37.1 °F - N/A% - 8.0 mi South 5.8 mph - N/A Rain Rain
8:28 AM 39.2 °F 34.2 °F - N/A% - 10.0 mi South 6.9 mph - N/A Rain Light Rain
8:52 AM 41.0 °F 38.0 °F - N/A% - 20.0 mi SSE 4.6 mph - N/A   Mostly Cloudy
9:00 AM 41.0 °F 37.1 °F 35.6 °F 81% 29.82 in 20.0 mi SE 5.8 mph - N/A   Mostly Cloudy
10:00 AM 44.6 °F 42.2 °F 35.6 °F 71% 29.82 in 30.0 mi West 4.6 mph - N/A   Partly Cloudy
11:00 AM 46 °F - 37 °F 60% 29.83 in 28 mi WNW 3.5 mph - -   Partly Cloudy
11:00 AM 46.4 °F 45.2 °F 37.4 °F 71% 29.83 in 30.0 mi WNW 3.5 mph - N/A   Mostly Cloudy
12:00 PM 48.2 °F - 35.6 °F 62% 29.85 in 30.0 mi East 4.6 mph - N/A   Mostly Cloudy
1:00 PM 46.4 °F 41.9 °F 39.2 °F 76% 29.85 in 30.0 mi NE 9.2 mph - N/A Rain Light Rain Showers
2:00 PM 48.2 °F - 35.6 °F 62% 29.87 in 30.0 mi North 10.4 mph - N/A Rain Light Rain Showers
3:00 PM 46.4 °F 42.4 °F 37.4 °F 71% 29.89 in 30.0 mi North 8.1 mph - N/A Rain Light Rain Showers
4:00 PM 44.6 °F 41.4 °F 39.2 °F 81% 29.91 in 30.0 mi SW 5.8 mph - N/A   Mostly Cloudy
4:05 PM 44.6 °F 40.2 °F - N/A% - 30.0 mi WSW 8.1 mph - N/A Rain Light Rain Showers
5:00 PM 45 °F - 38 °F 70% 29.92 in 28 mi West 8.1 mph - - Rain Light Rain Showers
5:00 PM 44.6 °F 39.7 °F 39.2 °F 81% 29.92 in 30.0 mi West 9.2 mph - N/A Rain Light Rain Showers
5:17 PM 44.6 °F 39.7 °F - N/A% - 30.0 mi WSW 9.2 mph - N/A   Mostly Cloudy
5:37 PM 44.6 °F 43.1 °F - N/A% - 30.0 mi WNW 3.5 mph - N/A Rain Light Rain Showers
6:00 PM 44.6 °F 41.4 °F 37.4 °F 76% 29.93 in 30.0 mi WSW 5.8 mph - N/A Rain Light Rain Showers
6:18 PM 44.6 °F 42.2 °F - N/A% - 30.0 mi WSW 4.6 mph - N/A   Mostly Cloudy
7:00 PM 44.6 °F 41.4 °F 37.4 °F 76% 29.94 in 30.0 mi West 5.8 mph - N/A   Mostly Cloudy
8:00 PM 42.8 °F 39.3 °F 37.4 °F 81% 29.95 in 30.0 mi WSW 5.8 mph - N/A   Mostly Cloudy
9:00 PM 39.2 °F 35.9 °F 35.6 °F 87% 29.97 in 30.0 mi West 4.6 mph - N/A   Partly Cloudy
10:00 PM 35.6 °F 30.7 °F 33.8 °F 93% 29.98 in 30.0 mi WSW 5.8 mph - N/A   Partly Cloudy
11:00 PM 37 °F - 33 °F 82% 29.99 in 28 mi WSW 6.9 mph - -   Partly Cloudy
11:00 PM 37.4 °F 32.1 °F 33.8 °F 87% 29.99 in 30.0 mi WSW 6.9 mph - N/A   Partly Cloudy
11:27 PM 35.6 °F 28.6 °F - N/A% - 30.0 mi WNW 9.2 mph - N/A   Partly Cloudy